Miscellaneous Local Product
Issued by NWS Hastings, NE

Home | Current Version | Previous Version | Graphics & Text | Print | Product List | Glossary On
Versions: 1 2 3 4 5 6 7 8 9 10 11 12 13 14 15 16 17 18 19 20 21 22 23 24 25 26 27 28 29 30 31 32 33 34 35 36 37 38 39 40 41 42 43 44 45 46 47 48 49 50
000
AXUS43 KGID 222102
MISGRI

GID CWA HOURLY WEATHER ROUNDUP
NATIONAL WEATHER SERVICE HASTINGS NE
400 PM CDT TUE JUL 22 2014

NOTE: "FAIR" INDICATES FEW OR NO CLOUDS BELOW 12,000 FEET WITH NO
SIGNIFICANT WEATHER AND/OR OBSTRUCTIONS TO VISIBILITY.

...SOUTH CENTRAL NEBRASKA...

CITY           SKY/WX    TMP DP  RH WIND       PRES   REMARKS
GRAND ISLAND   SUNNY     89  65  44 NE14      30.13F HX  91
HASTINGS       SUNNY     89  66  46 NE14      30.13S HX  91
KEARNEY        SUNNY     91  64  40 NE15      30.14F HX  93
ORD            SUNNY     88  64  44 NE9       30.15S
YORK           SUNNY     90  70  51 N15G21    30.12R HX  95
AURORA         SUNNY     89  67  47 NE10      30.13R HX  92
LEXINGTON      SUNNY     91  63  39 NE13      30.15F HX  92
HOLDREGE       SUNNY     89  65  44 NE13      30.14S HX  91
HEBRON         SUNNY     96  71  45 N3        30.07R HX 104

...NEBRASKA PANHANDLE...

CITY           SKY/WX    TMP DP  RH WIND       PRES   REMARKS
CHADRON        SUNNY     92  58  31 E10       30.20F HX  91
ALLIANCE       SUNNY     92  50  23 S9G21     30.24F
SCOTTSBLUFF    SUNNY     92  58  31 E12       30.23F HX  91
SIDNEY         SUNNY     95  49  20 SE10G16   30.27S HX  92

...WESTERN AND NORTH CENTRAL NEBRASKA...

CITY           SKY/WX    TMP DP  RH WIND       PRES   REMARKS
VALENTINE      SUNNY     86  61  42 E8        30.22F
AINSWORTH      SUNNY     82  59  45 NE7       30.23S
ONEILL         MOSUNNY   83  62  49 N9        30.21R
BROKEN BOW     SUNNY     90  65  43 NE12      30.18S HX  92
IMPERIAL       SUNNY     95  57  27 E12       30.19S HX  94
NORTH PLATTE   SUNNY     92  62  36 SE9       30.17S HX  92
MCCOOK         SUNNY     93  67  42 NE9G21    30.14S HX  96

...EASTERN NEBRASKA...

CITY           SKY/WX    TMP DP  RH WIND       PRES   REMARKS
NORFOLK        MOSUNNY   86  67  52 N15       30.14R
SO SIOUX CITY  PTSUNNY   82  68  62 E12       30.06F
TEKAMAH        MOSUNNY   89  67  47 N16G24    30.09R HX  92
COLUMBUS       SUNNY     88  68  51 N14       30.13R HX  91
ALBION         MOSUNNY   85  64  49 NE10G16   30.15F
OMAHA EPPLEY   MOSUNNY   89  70  53 N18       30.06R HX  94
OFFUTT AFB     MOSUNNY   91  73  55 N7        30.05R HX 100
MILLARD        MOSUNNY   89  71  55 N8G16     30.07R HX  96
LINCOLN        MOSUNNY   94  70  45 N14       30.07R HX 100
NEBRASKA CITY  SUNNY     92  73  53 NE6       30.03S HX 101
BEATRICE       MOSUNNY   91  76  60 N10       30.05R HX 103
FALLS CITY     SUNNY     97  76  50 N9        30.00R HX 110

...NORTHERN KANSAS...

CITY           SKY/WX    TMP DP  RH WIND       PRES   REMARKS
GOODLAND       SUNNY     95  60  31 SE8       30.18S HX  95
HILL CITY      SUNNY    100  64  30 SW8       30.08F HX 102
NORTON         CLEAR     99  54  22 NE5       30.10  HX  96
PHILLIPSBURG   SUNNY    100  61  27 S5        30.06F HX 101
SMITH CENTER   SUNNY    100  57  23 N7        30.05F HX  99
HAYS           SUNNY     97  66  36 SE6       30.09S HX 100
RUSSELL        SUNNY     97  69  40 VRB6      30.06F HX 103
CONCORDIA      SUNNY    100  60  26 SW5       30.03F HX 100
SALINA         MOSUNNY  102  69  34 VRB3      30.02F HX 109
TOPEKA         PTSUNNY  102  66  30 W13       29.99F HX 106



USA.gov is the U.S. government's official web portal to all federal, state and local government web resources and services.